Regional Weather Roundup
Issued by NWS

Home | Current Version | Previous Version | Graphics & Text | Print | Product List | Glossary On
Versions: 1 2 3 4 5 6 7 8 9 10 11 12 13 14 15 16 17 18 19 20 21 22 23 24 25 26 27
000
ASUS45 KCYS 181110
RWRWY

WYOMING REGIONAL WEATHER ROUNDUP
NATIONAL WEATHER SERVICE CHEYENNE WY
500 AM MDT FRI AUG 18 2017

NOTE:  "FAIR" INDICATES FEW OR NO CLOUDS BELOW 12,000 FEET
WITH NO SIGNIFICANT WEATHER AND/OR OBSTRUCTIONS TO VISIBILITY.

WYZ001-181200-
YELLOWSTONE NATIONAL PARK

CITY           SKY/WX    TMP DP  RH WIND       PRES   REMARKS
LK YELLOWSTONE   N/A     35  34  96 CALM      30.36S
W YELLOWSTONE  NOT AVBL

$$
WYZ002>013-054>058-071-098>099-181200-
NORTHERN WYOMING

CITY           SKY/WX    TMP DP  RH WIND       PRES   REMARKS
JACKSON        FAIR     N/A N/A N/A CALM      30.30S
CODY           FAIR      57  38  48 S3        30.16S
GREYBULL       FAIR      52  41  66 SE5       30.08S
WORLAND        FAIR      50  40  68 S6        30.10R
SHERIDAN       FAIR      53  40  61 CALM      30.08R
BUFFALO        FAIR      59  33  37 W6        30.14S
GILLETTE       FAIR      61  43  51 SW9       30.08S
HULETT         FAIR      55  45  67 N3        30.09R
NEWCASTLE      FAIR      50  41  71 NE9       30.11R

$$
WYZ014>020-022>026-101>103-181200-
CENTRAL WYOMING

CITY           SKY/WX    TMP DP  RH WIND       PRES   REMARKS
BIG PINEY      FAIR      38  31  76 NW3       30.32R
PINEDALE       FAIR      34  32  93 NW5       30.33S WCI  30
DUBOIS         FAIR      45  32  61 NW8       30.30S
LANDER           N/A    N/A N/A N/A MISG      30.19S
RIVERTON       FAIR      53  41  63 NW8       30.19S
CASPER         FAIR      50  45  83 W6        30.18S
DOUGLAS        FAIR      50  46  86 CALM      30.16S

$$
WYZ021-027>030-104>119-181200-
SOUTHERN WYOMING

CITY           SKY/WX    TMP DP  RH WIND       PRES   REMARKS
EVANSTON       FAIR      51  34  52 SE8       30.31F
KEMMERER         N/A     45  34  65 N10       30.33S
FORT BRIDGER   FAIR      55  32  41 W8        30.33S
ROCK SPRINGS   FAIR      57  32  38 CALM      30.29R
RAWLINS        FAIR      48  33  56 CALM      30.28R
SARATOGA       FAIR      43  37  81 S3        30.30R
LARAMIE        FAIR      46  37  71 S5        30.28S
CHEYENNE       FAIR      49  42  77 W9        30.22S
TORRINGTON     FAIR      53  49  86 N6        30.11S
PINE BLUFFS    FAIR      46  46 100 CALM      30.17S

$$




USA.gov is the U.S. government's official web portal to all federal, state and local government web resources and services.